Time,TemperatureF,DewpointF,PressureIn,WindDirection,WindDirectionDegrees,WindSpeedMPH,WindSpeedGustMPH,Humidity,HourlyPrecipIn,Conditions,Clouds,dailyrainin,SoftwareType,DateUTC
2013-04-08 00:03:00,59.1,42.0,29.66,South,182,14.0,26.0,53,0.00,CLR,,0.00,WeatherDisplay:10.37,2013-04-08 07:03:00,
2013-04-08 00:08:00,59.9,42.3,29.66,South,172,17.0,21.0,52,0.00,CLR,,0.00,WeatherDisplay:10.37,2013-04-08 07:08:00,
2013-04-08 00:13:00,59.4,42.3,29.65,South,172,18.0,23.0,53,0.00,CLR,,0.00,WeatherDisplay:10.37,2013-04-08 07:13:00,
2013-04-08 00:18:00,59.2,42.1,29.65,South,175,17.0,22.0,53,0.00,CLR,,0.00,WeatherDisplay:10.37,2013-04-08 07:18:00,
2013-04-08 00:23:00,59.5,42.3,29.65,South,176,22.0,35.0,53,0.00,CLR,,0.00,WeatherDisplay:10.37,2013-04-08 07:23:00,
2013-04-08 00:28:00,59.1,42.5,29.64,SSE,166,24.0,32.0,54,0.00,CLR,,0.00,WeatherDisplay:10.37,2013-04-08 07:28:00,
2013-04-08 00:33:00,58.8,42.7,29.64,SSE,165,26.0,36.0,55,0.00,CLR,,0.00,WeatherDisplay:10.37,2013-04-08 07:33:00,
2013-04-08 00:38:00,58.4,42.8,29.63,South,185,36.8,36.8,56,0.00,OVC,,0.00,WeatherDisplay:10.37,2013-04-08 07:38:00,
2013-04-08 00:43:00,59.0,42.8,29.63,SSW,193,32.2,32.2,55,0.00,OVC,,0.00,WeatherDisplay:10.37,2013-04-08 07:43:00,
2013-04-08 00:49:00,59.5,43.3,29.62,WSW,244,43.7,43.7,55,0.00,OVC,,0.00,WeatherDisplay:10.37,2013-04-08 07:49:00,
2013-04-08 00:54:00,59.7,43.5,29.62,SW,235,41.4,41.4,55,0.00,OVC,,0.00,WeatherDisplay:10.37,2013-04-08 07:54:00,
2013-04-08 00:59:00,60.0,43.3,29.62,SW,234,41.4,41.4,54,0.00,OVC,,0.00,WeatherDisplay:10.37,2013-04-08 07:59:00,
2013-04-08 01:04:00,59.6,42.9,29.63,SW,236,32.2,32.2,54,0.00,OVC,,0.00,WeatherDisplay:10.37,2013-04-08 08:04:00,
2013-04-08 01:09:00,59.7,43.0,29.62,SW,234,24.2,24.2,54,0.00,OVC,,0.00,WeatherDisplay:10.37,2013-04-08 08:09:00,
2013-04-08 01:14:00,59.3,42.6,29.62,SW,236,29.0,29.0,54,0.00,OVC,,0.00,WeatherDisplay:10.37,2013-04-08 08:14:00,
2013-04-08 01:19:00,59.4,42.7,29.61,SW,223,28.8,28.8,54,0.00,OVC,,0.00,WeatherDisplay:10.37,2013-04-08 08:19:00,
2013-04-08 01:24:00,58.9,42.8,29.62,SSW,200,31.1,31.1,55,0.00,OVC,,0.00,WeatherDisplay:10.37,2013-04-08 08:24:00,
2013-04-08 01:29:00,58.1,43.4,29.61,South,188,27.6,27.6,58,0.00,CLR,,0.00,WeatherDisplay:10.37,2013-04-08 08:29:00,
2013-04-08 01:34:00,57.7,43.5,29.61,SSW,197,33.4,33.4,59,0.00,OVC,,0.00,WeatherDisplay:10.37,2013-04-08 08:34:00,
2013-04-08 01:40:00,57.6,43.4,29.60,SSW,197,33.4,33.4,59,0.00,OVC,,0.00,WeatherDisplay:10.37,2013-04-08 08:40:00,
2013-04-08 01:45:00,57.6,43.4,29.60,SSW,199,34.0,34.0,59,0.00,OVC,,0.00,WeatherDisplay:10.37,2013-04-08 08:45:00,
2013-04-08 01:50:00,57.3,43.1,29.61,SW,230,36.0,36.0,59,0.00,OVC,,0.00,WeatherDisplay:10.37,2013-04-08 08:50:00,
2013-04-08 01:55:00,57.1,42.9,29.61,SW,225,38.0,38.0,59,0.00,OVC,,0.00,WeatherDisplay:10.37,2013-04-08 08:55:00,
2013-04-08 02:00:00,56.6,42.9,29.62,SW,230,31.1,31.1,60,0.00,OVC,,0.00,WeatherDisplay:10.37,2013-04-08 09:00:00,
2013-04-08 02:05:00,56.1,42.8,29.62,WSW,237,22.0,22.0,61,0.00,OVC,,0.00,WeatherDisplay:10.37,2013-04-08 09:05:00,
2013-04-08 02:11:00,55.9,43.5,29.62,SW,220,27.6,27.6,63,0.00,OVC,,0.00,WeatherDisplay:10.37,2013-04-08 09:11:00,
2013-04-08 02:16:00,55.4,43.4,29.62,SSW,210,22.0,22.0,64,0.00,OVC,,0.00,WeatherDisplay:10.37,2013-04-08 09:16:00,
2013-04-08 02:21:00,54.9,43.7,29.62,SSW,211,26.5,26.5,66,0.00,OVC,,0.00,WeatherDisplay:10.37,2013-04-08 09:21:00,
2013-04-08 02:26:00,54.8,43.7,29.62,SSW,209,23.0,23.0,66,0.00,OVC,,0.00,WeatherDisplay:10.37,2013-04-08 09:26:00,
2013-04-08 02:32:00,54.5,43.8,29.63,South,187,21.0,21.0,67,0.00,OVC,,0.00,WeatherDisplay:10.37,2013-04-08 09:32:00,
2013-04-08 02:37:00,54.4,43.7,29.63,SSW,196,23.0,23.0,67,0.00,OVC,,0.00,WeatherDisplay:10.37,2013-04-08 09:37:00,
2013-04-08 02:42:00,54.5,43.4,29.62,SW,228,27.0,27.0,66,0.00,OVC,,0.00,WeatherDisplay:10.37,2013-04-08 09:42:00,
2013-04-08 02:47:00,54.3,42.8,29.62,SW,221,33.4,33.4,65,0.00,OVC,,0.00,WeatherDisplay:10.37,2013-04-08 09:47:00,
2013-04-08 02:52:00,53.6,42.1,29.62,SSW,209,34.5,34.5,65,0.00,OVC,,0.00,WeatherDisplay:10.37,2013-04-08 09:52:00,
2013-04-08 02:57:00,53.5,42.4,29.61,WSW,244,25.3,25.3,66,0.00,OVC,,0.00,WeatherDisplay:10.37,2013-04-08 09:57:00,
2013-04-08 03:02:00,53.3,42.6,29.61,SW,227,29.0,29.0,67,0.00,OVC,,0.00,WeatherDisplay:10.37,2013-04-08 10:02:00,
2013-04-08 03:08:00,53.1,42.8,29.61,SW,216,26.5,26.5,68,0.00,OVC,,0.00,WeatherDisplay:10.37,2013-04-08 10:08:00,
2013-04-08 03:13:00,53.1,43.2,29.60,SW,215,25.0,25.0,69,0.00,OVC,,0.00,WeatherDisplay:10.37,2013-04-08 10:13:00,
2013-04-08 03:18:00,53.2,42.5,29.61,SSW,213,29.0,29.0,67,0.00,OVC,,0.00,WeatherDisplay:10.37,2013-04-08 10:18:00,
2013-04-08 03:23:00,52.8,42.1,29.60,SW,229,29.0,29.0,67,0.00,OVC,,0.00,WeatherDisplay:10.37,2013-04-08 10:23:00,
2013-04-08 03:28:00,52.7,41.7,29.60,SW,224,24.0,28.0,66,0.00,CLR,,0.00,WeatherDisplay:10.37,2013-04-08 10:28:00,
2013-04-08 03:33:00,52.3,41.3,29.59,SSW,198,21.9,21.9,66,0.00,OVC,,0.00,WeatherDisplay:10.37,2013-04-08 10:33:00,
2013-04-08 03:38:00,52.2,41.6,29.59,SSW,213,21.9,21.9,67,0.00,OVC,,0.00,WeatherDisplay:10.37,2013-04-08 10:38:00,
2013-04-08 03:43:00,51.6,40.6,29.59,SW,223,21.9,21.9,66,0.00,OVC,,0.00,WeatherDisplay:10.37,2013-04-08 10:43:00,
2013-04-08 03:49:00,51.4,40.4,29.59,South,189,21.9,21.9,66,0.00,OVC,,0.00,WeatherDisplay:10.37,2013-04-08 10:49:00,
2013-04-08 03:54:00,50.9,39.9,29.59,SSW,198,16.1,16.1,66,0.00,CLR,,0.00,WeatherDisplay:10.37,2013-04-08 10:54:00,
2013-04-08 03:59:00,50.8,39.8,29.59,South,189,17.3,17.3,66,0.00,OVC,,0.00,WeatherDisplay:10.37,2013-04-08 10:59:00,
2013-04-08 04:04:00,50.8,39.8,29.58,SSW,202,17.3,17.3,66,0.00,OVC,,0.00,WeatherDisplay:10.37,2013-04-08 11:04:00,
2013-04-08 04:09:00,50.8,39.8,29.59,SSW,211,19.6,19.6,66,0.00,OVC,,0.00,WeatherDisplay:10.37,2013-04-08 11:09:00,
2013-04-08 04:15:00,51.0,39.6,29.58,SSW,198,18.4,18.4,65,0.00,OVC,,0.00,WeatherDisplay:10.37,2013-04-08 11:15:00,
2013-04-08 04:20:00,51.0,39.2,29.58,SSW,204,27.6,27.6,64,0.00,OVC,,0.00,WeatherDisplay:10.37,2013-04-08 11:20:00,
2013-04-08 04:25:00,50.9,39.1,29.58,SW,219,27.0,27.0,64,0.00,CLR,,0.00,WeatherDisplay:10.37,2013-04-08 11:25:00,
2013-04-08 04:30:00,50.7,39.0,29.58,SSW,207,20.7,20.7,64,0.00,OVC,,0.00,WeatherDisplay:10.37,2013-04-08 11:30:00,
2013-04-08 04:35:00,50.3,39.0,29.57,SSW,192,20.7,20.7,65,0.00,OVC,,0.00,WeatherDisplay:10.37,2013-04-08 11:35:00,
2013-04-08 04:41:00,50.3,38.6,29.57,SSW,204,29.9,29.9,64,0.00,OVC,,0.00,WeatherDisplay:10.37,2013-04-08 11:41:00,
2013-04-08 04:46:00,50.4,38.3,29.57,SW,231,31.0,31.0,63,0.00,OVC,,0.00,WeatherDisplay:10.37,2013-04-08 11:46:00,
2013-04-08 04:51:00,50.3,38.2,29.56,SW,219,29.0,29.0,63,0.00,OVC,,0.00,WeatherDisplay:10.37,2013-04-08 11:51:00,
2013-04-08 04:56:00,49.9,38.2,29.56,SSW,200,18.4,18.4,64,0.00,OVC,,0.00,WeatherDisplay:10.37,2013-04-08 11:56:00,
2013-04-08 05:02:00,49.9,38.6,29.56,SW,214,37.0,37.0,65,0.00,OVC,,0.00,WeatherDisplay:10.37,2013-04-08 12:02:00,
2013-04-08 05:07:00,49.9,38.2,29.56,SW,214,26.0,26.0,64,0.00,OVC,,0.00,WeatherDisplay:10.37,2013-04-08 12:07:00,
2013-04-08 05:13:00,49.6,38.3,29.55,SSW,203,21.9,21.9,65,0.00,OVC,,0.00,WeatherDisplay:10.37,2013-04-08 12:13:00,
2013-04-08 05:18:00,49.4,38.5,29.55,SSW,210,21.0,25.0,66,0.00,CLR,,0.00,WeatherDisplay:10.37,2013-04-08 12:18:00,
2013-04-08 05:23:00,49.6,38.3,29.54,SSW,211,25.0,31.0,65,0.00,CLR,,0.00,WeatherDisplay:10.37,2013-04-08 12:23:00,
2013-04-08 05:28:00,49.3,38.4,29.54,SSW,211,22.0,27.0,66,0.00,CLR,,0.00,WeatherDisplay:10.37,2013-04-08 12:28:00,
2013-04-08 05:33:00,49.2,38.7,29.55,SSW,209,26.5,26.5,67,0.00,OVC,,0.00,WeatherDisplay:10.37,2013-04-08 12:33:00,
2013-04-08 05:38:00,49.2,38.7,29.55,SW,226,26.5,26.5,67,0.00,OVC,,0.00,WeatherDisplay:10.37,2013-04-08 12:38:00,
2013-04-08 05:43:00,49.0,38.9,29.55,SSW,193,26.5,26.5,68,0.00,OVC,,0.00,WeatherDisplay:10.37,2013-04-08 12:43:00,
2013-04-08 05:48:00,49.0,38.5,29.56,SSW,205,29.9,29.9,67,0.00,OVC,,0.00,WeatherDisplay:10.37,2013-04-08 12:48:00,
2013-04-08 05:53:00,49.0,38.5,29.55,SSW,205,26.0,26.0,67,0.00,OVC,,0.00,WeatherDisplay:10.37,2013-04-08 12:53:00,
2013-04-08 05:59:00,49.0,38.1,29.55,SW,216,23.0,23.0,66,0.00,OVC,,0.00,WeatherDisplay:10.37,2013-04-08 12:59:00,
2013-04-08 06:04:00,49.0,37.7,29.55,SSW,199,27.6,27.6,65,0.00,OVC,,0.00,WeatherDisplay:10.37,2013-04-08 13:04:00,
2013-04-08 06:09:00,48.8,37.9,29.55,SW,223,23.0,23.0,66,0.00,OVC,,0.00,WeatherDisplay:10.37,2013-04-08 13:09:00,
2013-04-08 06:14:00,48.7,37.5,29.55,SSW,201,21.9,21.9,65,0.00,OVC,,0.00,WeatherDisplay:10.37,2013-04-08 13:14:00,
2013-04-08 06:19:00,49.0,37.3,29.56,SW,221,20.7,20.7,64,0.00,OVC,,0.00,WeatherDisplay:10.37,2013-04-08 13:19:00,
2013-04-08 06:24:00,49.0,37.3,29.56,SW,232,26.5,26.5,64,0.00,OVC,,0.00,WeatherDisplay:10.37,2013-04-08 13:24:00,
2013-04-08 06:30:00,49.1,36.6,29.56,SW,231,26.5,26.5,62,0.00,OVC,,0.00,WeatherDisplay:10.37,2013-04-08 13:30:00,
2013-04-08 06:35:00,49.4,35.2,29.56,SW,236,34.5,34.5,58,0.00,OVC,,0.00,WeatherDisplay:10.37,2013-04-08 13:35:00,
2013-04-08 06:40:00,49.7,34.6,29.55,SW,222,33.4,33.4,56,0.00,OVC,,0.00,WeatherDisplay:10.37,2013-04-08 13:40:00,
2013-04-08 06:45:00,49.4,34.8,29.55,SW,217,27.0,27.0,57,0.00,OVC,,0.00,WeatherDisplay:10.37,2013-04-08 13:45:00,
2013-04-08 06:50:00,49.6,34.1,29.55,SSW,204,28.8,28.8,55,0.00,OVC,,0.00,WeatherDisplay:10.37,2013-04-08 13:50:00,
2013-04-08 06:56:00,49.7,33.7,29.55,SW,228,34.5,34.5,54,0.00,OVC,,0.00,WeatherDisplay:10.37,2013-04-08 13:56:00,
2013-04-08 07:01:00,49.7,32.8,29.55,SSW,210,34.5,34.5,52,0.00,OVC,,0.00,WeatherDisplay:10.37,2013-04-08 14:01:00,
2013-04-08 07:07:00,49.8,31.9,29.56,SW,219,35.0,35.0,50,0.00,OVC,,0.00,WeatherDisplay:10.37,2013-04-08 14:07:00,
2013-04-08 07:12:00,49.8,32.4,29.56,SW,233,27.6,27.6,51,0.00,OVC,,0.00,WeatherDisplay:10.37,2013-04-08 14:12:00,
2013-04-08 07:17:00,49.4,31.0,29.56,SW,214,36.8,36.8,49,0.00,OVC,,0.00,WeatherDisplay:10.37,2013-04-08 14:17:00,
2013-04-08 07:22:00,49.3,30.9,29.55,SW,229,39.1,39.1,49,0.00,OVC,,0.00,WeatherDisplay:10.37,2013-04-08 14:22:00,
2013-04-08 07:27:00,49.6,30.7,29.55,SSW,200,40.3,40.3,48,0.00,OVC,,0.00,WeatherDisplay:10.37,2013-04-08 14:27:00,
2013-04-08 07:33:00,49.8,30.4,29.54,SSW,211,37.0,43.0,47,0.00,,,0.00,WeatherDisplay:10.37,2013-04-08 14:33:00,
2013-04-08 07:38:00,49.8,30.3,29.54,SSW,207,30.0,40.0,47,0.00,,,0.00,WeatherDisplay:10.37,2013-04-08 14:38:00,
2013-04-08 07:43:00,49.2,30.3,29.55,SSW,204,32.0,50.0,48,0.00,,,0.00,WeatherDisplay:10.37,2013-04-08 14:43:00,
2013-04-08 07:48:00,48.8,31.4,29.57,SSW,207,36.0,44.0,51,0.00,,,0.00,WeatherDisplay:10.37,2013-04-08 14:48:00,
2013-04-08 07:53:00,46.2,30.5,29.58,SW,228,40.0,51.0,54,0.00,,,0.00,WeatherDisplay:10.37,2013-04-08 14:53:00,
2013-04-08 07:58:00,46.3,29.6,29.59,SW,227,26.0,41.0,52,0.00,CLR,,0.00,WeatherDisplay:10.37,2013-04-08 14:58:00,
2013-04-08 08:03:00,46.7,29.5,29.60,SSW,213,31.0,45.0,51,0.00,,,0.00,WeatherDisplay:10.37,2013-04-08 15:03:00,
2013-04-08 08:08:00,46.7,28.6,29.59,SSW,196,29.0,39.0,49,0.00,,,0.00,WeatherDisplay:10.37,2013-04-08 15:08:00,
2013-04-08 08:13:00,46.6,29.4,29.59,South,189,28.0,36.0,51,0.00,,,0.00,WeatherDisplay:10.37,2013-04-08 15:13:00,
2013-04-08 08:18:00,46.6,29.4,29.58,South,186,33.0,44.0,51,0.00,,,0.00,WeatherDisplay:10.37,2013-04-08 15:18:00,
2013-04-08 08:23:00,46.2,30.0,29.58,South,183,40.0,49.0,53,0.00,,,0.00,WeatherDisplay:10.37,2013-04-08 15:23:00,
2013-04-08 08:28:00,46.1,30.3,29.58,South,184,35.0,48.0,54,0.00,,,0.00,WeatherDisplay:10.37,2013-04-08 15:28:00,
2013-04-08 08:33:00,46.1,30.3,29.58,South,186,36.0,47.0,54,0.00,,,0.00,WeatherDisplay:10.37,2013-04-08 15:33:00,
2013-04-08 08:38:00,45.3,30.5,29.58,South,189,30.0,52.0,56,0.00,,,0.00,WeatherDisplay:10.37,2013-04-08 15:38:00,
2013-04-08 08:43:00,45.4,29.7,29.59,South,191,31.0,46.0,54,0.00,,,0.00,WeatherDisplay:10.37,2013-04-08 15:43:00,
2013-04-08 08:48:00,45.8,30.1,29.59,SW,215,50.6,50.6,54,0.00,OVC,,0.00,WeatherDisplay:10.37,2013-04-08 15:48:00,
2013-04-08 08:53:00,45.9,30.2,29.59,South,190,39.1,39.1,54,0.00,OVC,,0.00,WeatherDisplay:10.37,2013-04-08 15:53:00,
2013-04-08 08:58:00,45.4,30.2,29.60,South,190,41.4,41.4,55,0.00,OVC,,0.00,WeatherDisplay:10.37,2013-04-08 15:58:00,
2013-04-08 09:04:00,45.4,30.6,29.60,SSW,192,42.6,42.6,56,0.00,CLR,,0.00,WeatherDisplay:10.37,2013-04-08 16:04:00,
2013-04-08 09:09:00,45.5,30.3,29.60,South,179,38.0,38.0,55,0.00,CLR,,0.00,WeatherDisplay:10.37,2013-04-08 16:09:00,
2013-04-08 09:14:00,45.3,30.5,29.60,South,188,34.0,34.0,56,0.00,CLR,,0.00,WeatherDisplay:10.37,2013-04-08 16:14:00,
2013-04-08 09:19:00,45.8,31.0,29.60,South,188,34.5,34.5,56,0.00,CLR,,0.00,WeatherDisplay:10.37,2013-04-08 16:19:00,
2013-04-08 09:24:00,46.2,30.9,29.60,South,178,37.0,37.0,55,0.00,CLR,,0.00,WeatherDisplay:10.37,2013-04-08 16:24:00,
2013-04-08 09:30:00,46.6,31.3,29.61,South,189,31.1,31.1,55,0.00,CLR,,0.00,WeatherDisplay:10.37,2013-04-08 16:30:00,
2013-04-08 09:35:00,46.4,31.1,29.60,South,190,45.0,45.0,55,0.00,CLR,,0.00,WeatherDisplay:10.37,2013-04-08 16:35:00,
2013-04-08 09:40:00,47.0,31.7,29.60,South,185,42.6,42.6,55,0.00,CLR,,0.00,WeatherDisplay:10.37,2013-04-08 16:40:00,
2013-04-08 09:45:00,47.1,31.7,29.59,SSW,203,43.7,43.7,55,0.00,CLR,,0.00,WeatherDisplay:10.37,2013-04-08 16:45:00,
2013-04-08 09:51:00,46.5,31.2,29.59,South,175,42.6,42.6,55,0.00,CLR,,0.00,WeatherDisplay:10.37,2013-04-08 16:51:00,
2013-04-08 09:56:00,47.8,31.9,29.59,SSW,192,46.0,46.0,54,0.00,CLR,,0.00,WeatherDisplay:10.37,2013-04-08 16:56:00,
2013-04-08 10:01:00,47.1,31.7,29.59,South,180,46.0,46.0,55,0.00,CLR,,0.00,WeatherDisplay:10.37,2013-04-08 17:01:00,
2013-04-08 10:06:00,47.5,32.1,29.60,South,184,48.3,48.3,55,0.00,OVC,,0.00,WeatherDisplay:10.37,2013-04-08 17:06:00,
2013-04-08 10:11:00,48.1,32.2,29.59,SSW,193,44.0,44.0,54,0.00,OVC,,0.00,WeatherDisplay:10.37,2013-04-08 17:11:00,
2013-04-08 10:17:00,48.2,32.3,29.59,SSW,203,40.3,40.3,54,0.00,OVC,,0.00,WeatherDisplay:10.37,2013-04-08 17:17:00,
2013-04-08 10:22:00,48.5,32.6,29.60,South,183,38.0,38.0,54,0.00,OVC,,0.00,WeatherDisplay:10.37,2013-04-08 17:22:00,
2013-04-08 10:27:00,47.8,32.4,29.59,SSW,199,39.1,39.1,55,0.00,OVC,,0.00,WeatherDisplay:10.37,2013-04-08 17:27:00,
2013-04-08 10:32:00,48.8,32.4,29.59,SSW,192,34.5,34.5,53,0.00,OVC,,0.00,WeatherDisplay:10.37,2013-04-08 17:32:00,
2013-04-08 10:37:00,49.6,32.2,29.58,SSW,212,38.0,38.0,51,0.00,OVC,,0.00,WeatherDisplay:10.37,2013-04-08 17:37:00,
2013-04-08 10:42:00,49.7,31.3,29.59,South,187,39.1,39.1,49,0.00,OVC,,0.00,WeatherDisplay:10.37,2013-04-08 17:42:00,
2013-04-08 10:48:00,49.3,32.9,29.59,WSW,246,36.8,36.8,53,0.00,OVC,,0.00,WeatherDisplay:10.37,2013-04-08 17:48:00,
2013-04-08 10:53:00,49.6,33.6,29.58,SSW,205,46.0,46.0,54,0.00,OVC,,0.00,WeatherDisplay:10.37,2013-04-08 17:53:00,
2013-04-08 10:58:00,50.2,32.2,29.59,SSW,202,35.0,44.0,50,0.00,,,0.00,WeatherDisplay:10.37,2013-04-08 17:58:00,
2013-04-08 11:03:00,49.5,32.6,29.59,SSW,205,35.0,45.0,52,0.00,,,0.00,WeatherDisplay:10.37,2013-04-08 18:03:00,
2013-04-08 11:08:00,50.6,32.6,29.60,SSW,208,29.0,43.0,50,0.00,,,0.00,WeatherDisplay:10.37,2013-04-08 18:08:00,
2013-04-08 11:13:00,50.5,33.0,29.59,SSW,210,38.0,46.0,51,0.00,,,0.00,WeatherDisplay:10.37,2013-04-08 18:13:00,
2013-04-08 11:18:00,50.5,33.0,29.59,SW,217,41.0,46.0,51,0.00,,,0.00,WeatherDisplay:10.37,2013-04-08 18:18:00,
2013-04-08 11:23:00,50.9,32.9,29.58,SW,220,46.0,46.0,50,0.00,OVC,,0.00,WeatherDisplay:10.37,2013-04-08 18:23:00,
2013-04-08 11:28:00,50.1,33.1,29.58,SW,234,48.3,48.3,52,0.00,OVC,,0.00,WeatherDisplay:10.37,2013-04-08 18:28:00,
2013-04-08 11:33:00,50.7,33.2,29.57,WSW,238,57.0,57.0,51,0.00,OVC,,0.00,WeatherDisplay:10.37,2013-04-08 18:33:00,
2013-04-08 11:38:00,50.6,34.6,29.58,SW,227,49.5,49.5,54,0.00,OVC,,0.00,WeatherDisplay:10.37,2013-04-08 18:38:00,
2013-04-08 11:43:00,50.4,32.4,29.58,WSW,238,55.0,55.0,50,0.00,OVC,,0.00,WeatherDisplay:10.37,2013-04-08 18:43:00,
2013-04-08 11:49:00,51.3,32.8,29.58,SW,236,43.7,43.7,49,0.00,OVC,,0.00,WeatherDisplay:10.37,2013-04-08 18:49:00,
2013-04-08 11:54:00,50.9,32.9,29.59,SW,218,40.3,40.3,50,0.00,OVC,,0.00,WeatherDisplay:10.37,2013-04-08 18:54:00,
2013-04-08 11:59:00,51.1,33.6,29.58,SW,235,49.5,49.5,51,0.00,OVC,,0.00,WeatherDisplay:10.37,2013-04-08 18:59:00,
2013-04-08 12:04:00,51.0,33.5,29.57,SW,228,57.5,57.5,51,0.00,OVC,,0.00,WeatherDisplay:10.37,2013-04-08 19:04:00,
2013-04-08 12:09:00,51.0,34.5,29.57,SW,234,56.4,56.4,53,0.00,OVC,,0.00,WeatherDisplay:10.37,2013-04-08 19:09:00,
2013-04-08 12:14:00,50.1,33.1,29.57,WSW,252,56.4,56.4,52,0.00,OVC,,0.00,WeatherDisplay:10.37,2013-04-08 19:14:00,
2013-04-08 12:20:00,50.4,32.9,29.57,WSW,240,55.2,55.2,51,0.00,OVC,,0.00,WeatherDisplay:10.37,2013-04-08 19:20:00,
2013-04-08 12:25:00,51.8,32.7,29.58,WSW,244,59.0,59.0,48,0.00,OVC,,0.00,WeatherDisplay:10.37,2013-04-08 19:25:00,
2013-04-08 12:30:00,51.5,32.4,29.57,SW,224,53.0,53.0,48,0.00,OVC,,0.00,WeatherDisplay:10.37,2013-04-08 19:30:00,
2013-04-08 12:35:00,51.3,32.8,29.58,SW,227,51.8,51.8,49,0.00,OVC,,0.00,WeatherDisplay:10.37,2013-04-08 19:35:00,
2013-04-08 12:40:00,51.7,33.6,29.57,SW,220,56.4,56.4,50,0.00,OVC,,0.00,WeatherDisplay:10.37,2013-04-08 19:40:00,
2013-04-08 12:45:00,51.0,34.0,29.57,SW,222,52.0,52.0,52,0.00,OVC,,0.00,WeatherDisplay:10.37,2013-04-08 19:45:00,
2013-04-08 12:50:00,52.6,35.0,29.58,SSW,203,54.0,54.0,51,0.00,CLR,,0.00,WeatherDisplay:10.37,2013-04-08 19:50:00,
2013-04-08 12:55:00,52.0,34.9,29.59,SSW,213,48.0,48.0,52,0.00,OVC,,0.00,WeatherDisplay:10.37,2013-04-08 19:55:00,
2013-04-08 13:01:00,51.5,33.5,29.60,South,189,33.0,33.0,50,0.00,OVC,,0.00,WeatherDisplay:10.37,2013-04-08 20:01:00,
2013-04-08 13:06:00,51.4,33.9,29.60,South,182,26.5,26.5,51,0.00,OVC,,0.00,WeatherDisplay:10.37,2013-04-08 20:06:00,
2013-04-08 13:12:00,50.9,34.4,29.58,South,191,44.0,44.0,53,0.00,OVC,,0.00,WeatherDisplay:10.37,2013-04-08 20:12:00,
2013-04-08 13:17:00,52.1,34.5,29.58,SSE,166,44.0,44.0,51,0.00,OVC,,0.00,WeatherDisplay:10.37,2013-04-08 20:17:00,
2013-04-08 13:22:00,54.1,35.3,29.57,SSW,199,41.4,41.4,49,0.00,OVC,,0.00,WeatherDisplay:10.37,2013-04-08 20:22:00,
2013-04-08 13:27:00,55.8,32.4,29.56,WSW,240,27.6,27.6,41,0.00,OVC,,0.00,WeatherDisplay:10.37,2013-04-08 20:27:00,
2013-04-08 13:33:00,55.8,31.2,29.53,WSW,238,43.7,43.7,39,0.00,OVC,,0.00,WeatherDisplay:10.37,2013-04-08 20:33:00,
2013-04-08 13:38:00,55.4,32.1,29.51,WSW,258,50.6,50.6,41,0.00,OVC,,0.00,WeatherDisplay:10.37,2013-04-08 20:38:00,
2013-04-08 13:43:00,55.5,31.6,29.50,West,273,48.0,59.0,40,0.00,,,0.00,WeatherDisplay:10.37,2013-04-08 20:43:00,
2013-04-08 13:48:00,54.1,32.6,29.49,West,278,57.5,57.5,44,0.00,OVC,,0.00,WeatherDisplay:10.37,2013-04-08 20:48:00,
2013-04-08 13:53:00,53.9,33.0,29.50,West,269,58.7,58.7,45,0.00,OVC,,0.00,WeatherDisplay:10.37,2013-04-08 20:53:00,
2013-04-08 13:59:00,53.7,33.9,29.50,West,276,50.6,50.6,47,0.00,OVC,,0.00,WeatherDisplay:10.37,2013-04-08 20:59:00,
2013-04-08 14:04:00,53.4,33.7,29.51,West,269,54.0,54.0,47,0.00,OVC,,0.00,WeatherDisplay:10.37,2013-04-08 21:04:00,
2013-04-08 14:09:00,53.4,33.7,29.51,West,266,52.9,52.9,47,0.00,OVC,,0.00,WeatherDisplay:10.37,2013-04-08 21:09:00,
2013-04-08 14:14:00,53.7,33.4,29.51,West,274,56.4,56.4,46,0.00,OVC,,0.00,WeatherDisplay:10.37,2013-04-08 21:14:00,
2013-04-08 14:19:00,53.6,33.3,29.52,West,263,56.4,56.4,46,0.00,OVC,,0.00,WeatherDisplay:10.37,2013-04-08 21:19:00,
2013-04-08 14:24:00,52.9,33.7,29.54,West,264,56.4,56.4,48,0.00,CLR,,0.00,WeatherDisplay:10.37,2013-04-08 21:24:00,
2013-04-08 14:29:00,53.1,34.4,29.54,West,260,53.0,53.0,49,0.00,OVC,,0.00,WeatherDisplay:10.37,2013-04-08 21:29:00,
2013-04-08 14:35:00,52.4,34.3,29.53,West,279,55.2,55.2,50,0.00,OVC,,0.00,WeatherDisplay:10.37,2013-04-08 21:35:00,
2013-04-08 14:40:00,53.3,33.6,29.54,West,277,56.4,56.4,47,0.00,OVC,,0.00,WeatherDisplay:10.37,2013-04-08 21:40:00,
2013-04-08 14:45:00,52.3,34.2,29.53,WSW,240,56.4,56.4,50,0.00,OVC,,0.00,WeatherDisplay:10.37,2013-04-08 21:45:00,
2013-04-08 14:50:00,52.7,33.5,29.53,WSW,250,55.2,55.2,48,0.00,OVC,,0.00,WeatherDisplay:10.37,2013-04-08 21:50:00,
2013-04-08 14:55:00,52.6,33.5,29.54,WSW,254,58.7,58.7,48,0.00,OVC,,0.00,WeatherDisplay:10.37,2013-04-08 21:55:00,
2013-04-08 15:00:00,53.2,34.0,29.52,WSW,255,55.2,55.2,48,0.00,OVC,,0.00,WeatherDisplay:10.37,2013-04-08 22:00:00,
2013-04-08 15:05:00,53.1,34.4,29.54,WSW,257,51.0,51.0,49,0.00,OVC,,0.00,WeatherDisplay:10.37,2013-04-08 22:05:00,
2013-04-08 15:10:00,54.1,34.3,29.55,West,279,40.3,40.3,47,0.00,OVC,,0.00,WeatherDisplay:10.37,2013-04-08 22:10:00,
2013-04-08 15:15:00,54.6,33.1,29.55,WNW,302,44.9,44.9,44,0.00,OVC,,0.00,WeatherDisplay:10.37,2013-04-08 22:15:00,
2013-04-08 15:20:00,55.1,33.0,29.53,West,281,50.6,50.6,43,0.00,OVC,,0.00,WeatherDisplay:10.37,2013-04-08 22:20:00,
2013-04-08 15:26:00,54.1,33.8,29.55,West,267,49.5,49.5,46,0.00,OVC,,0.00,WeatherDisplay:10.37,2013-04-08 22:26:00,
2013-04-08 15:32:00,53.5,34.3,29.54,West,270,42.6,42.6,48,0.00,OVC,,0.00,WeatherDisplay:10.37,2013-04-08 22:32:00,
2013-04-08 15:37:00,53.6,33.8,29.54,WNW,288,46.0,46.0,47,0.00,OVC,,0.00,WeatherDisplay:10.37,2013-04-08 22:37:00,
2013-04-08 15:42:00,54.5,34.1,29.54,West,265,48.3,48.3,46,0.00,OVC,,0.00,WeatherDisplay:10.37,2013-04-08 22:42:00,
2013-04-08 15:47:00,53.7,33.4,29.54,WNW,291,53.0,53.0,46,0.00,OVC,,0.00,WeatherDisplay:10.37,2013-04-08 22:47:00,
2013-04-08 15:53:00,54.6,33.1,29.54,WNW,282,33.0,52.0,44,0.00,,,0.00,WeatherDisplay:10.37,2013-04-08 22:53:00,
2013-04-08 15:58:00,54.9,32.2,29.53,West,279,38.0,49.0,42,0.00,,,0.00,WeatherDisplay:10.37,2013-04-08 22:58:00,
2013-04-08 16:03:00,55.9,31.9,29.54,West,277,29.0,48.0,40,0.00,,,0.00,WeatherDisplay:10.37,2013-04-08 23:03:00,
2013-04-08 16:08:00,55.7,31.7,29.55,West,278,31.0,50.0,40,0.00,,,0.00,WeatherDisplay:10.37,2013-04-08 23:08:00,
2013-04-08 16:13:00,56.4,31.7,29.55,West,279,38.0,38.0,39,0.00,OVC,,0.00,WeatherDisplay:10.37,2013-04-08 23:13:00,
2013-04-08 16:18:00,56.1,32.1,29.55,WNW,283,39.0,52.0,40,0.00,,,0.00,WeatherDisplay:10.37,2013-04-08 23:18:00,
2013-04-08 16:23:00,55.6,32.3,29.55,West,280,35.0,55.0,41,0.00,,,0.00,WeatherDisplay:10.37,2013-04-08 23:23:00,
2013-04-08 16:28:00,54.9,32.2,29.55,West,273,48.3,48.3,42,0.00,OVC,,0.00,WeatherDisplay:10.37,2013-04-08 23:28:00,
2013-04-08 16:33:00,54.2,32.2,29.54,West,269,46.0,46.0,43,0.00,OVC,,0.00,WeatherDisplay:10.37,2013-04-08 23:33:00,
2013-04-08 16:39:00,54.8,32.1,29.55,West,269,43.7,43.7,42,0.00,OVC,,0.00,WeatherDisplay:10.37,2013-04-08 23:39:00,
2013-04-08 16:44:00,54.5,31.9,29.55,West,275,46.0,46.0,42,0.00,OVC,,0.00,WeatherDisplay:10.37,2013-04-08 23:44:00,
2013-04-08 16:49:00,54.8,32.1,29.55,West,272,49.5,49.5,42,0.00,OVC,,0.00,WeatherDisplay:10.37,2013-04-08 23:49:00,
2013-04-08 16:54:00,55.5,31.5,29.56,West,279,36.0,36.0,40,0.00,OVC,,0.00,WeatherDisplay:10.37,2013-04-08 23:54:00,
2013-04-08 16:59:00,55.1,31.8,29.57,WNW,290,36.8,36.8,41,0.00,OVC,,0.00,WeatherDisplay:10.37,2013-04-08 23:59:00,
2013-04-08 17:04:00,54.5,33.0,29.57,WNW,286,46.0,46.0,44,0.00,CLR,,0.00,WeatherDisplay:10.37,2013-04-09 00:04:00,
2013-04-08 17:10:00,54.0,33.1,29.58,West,267,34.5,34.5,45,0.00,CLR,,0.00,WeatherDisplay:10.37,2013-04-09 00:10:00,
2013-04-08 17:15:00,53.8,32.9,29.57,West,277,49.5,49.5,45,0.00,CLR,,0.00,WeatherDisplay:10.37,2013-04-09 00:15:00,
2013-04-08 17:20:00,53.9,32.5,29.57,WNW,284,44.9,44.9,44,0.00,CLR,,0.00,WeatherDisplay:10.37,2013-04-09 00:20:00,
2013-04-08 17:25:00,54.3,31.7,29.57,West,273,42.6,42.6,42,0.00,CLR,,0.00,WeatherDisplay:10.37,2013-04-09 00:25:00,
2013-04-08 17:30:00,54.2,31.0,29.58,West,281,44.9,44.9,41,0.00,CLR,,0.00,WeatherDisplay:10.37,2013-04-09 00:30:00,
2013-04-08 17:35:00,54.4,31.2,29.58,West,270,42.0,42.0,41,0.00,CLR,,0.00,WeatherDisplay:10.37,2013-04-09 00:35:00,
2013-04-08 17:40:00,53.7,32.3,29.58,WNW,285,40.3,40.3,44,0.00,CLR,,0.00,WeatherDisplay:10.37,2013-04-09 00:40:00,
2013-04-08 17:45:00,53.9,32.5,29.58,West,269,39.0,39.0,44,0.00,CLR,,0.00,WeatherDisplay:10.37,2013-04-09 00:45:00,
2013-04-08 17:51:00,53.5,31.5,29.57,WNW,291,59.0,59.0,43,0.00,CLR,,0.00,WeatherDisplay:10.37,2013-04-09 00:51:00,
2013-04-08 17:56:00,52.8,32.6,29.59,West,276,43.0,43.0,46,0.00,CLR,,0.00,WeatherDisplay:10.37,2013-04-09 00:56:00,
2013-04-08 18:02:00,52.7,31.9,29.59,West,272,40.3,40.3,45,0.00,CLR,,0.00,WeatherDisplay:10.37,2013-04-09 01:02:00,
2013-04-08 18:07:00,53.0,31.6,29.59,WNW,284,44.0,44.0,44,0.00,CLR,,0.00,WeatherDisplay:10.37,2013-04-09 01:07:00,
2013-04-08 18:12:00,52.7,31.9,29.59,West,267,42.6,42.6,45,0.00,CLR,,0.00,WeatherDisplay:10.37,2013-04-09 01:12:00,
2013-04-08 18:17:00,52.6,32.9,29.59,West,273,35.7,35.7,47,0.00,CLR,,0.00,WeatherDisplay:10.37,2013-04-09 01:17:00,
2013-04-08 18:22:00,52.6,32.9,29.60,West,271,33.4,33.4,47,0.00,CLR,,0.00,WeatherDisplay:10.37,2013-04-09 01:22:00,
2013-04-08 18:27:00,53.0,31.6,29.60,West,278,39.1,39.1,44,0.00,CLR,,0.00,WeatherDisplay:10.37,2013-04-09 01:27:00,
2013-04-08 18:32:00,53.1,31.2,29.61,West,263,26.0,26.0,43,0.00,CLR,,0.00,WeatherDisplay:10.37,2013-04-09 01:32:00,
2013-04-08 18:37:00,52.9,31.6,29.61,WNW,287,33.4,33.4,44,0.00,CLR,,0.00,WeatherDisplay:10.37,2013-04-09 01:37:00,
2013-04-08 18:42:00,52.6,31.8,29.61,WNW,285,41.4,41.4,45,0.00,CLR,,0.00,WeatherDisplay:10.37,2013-04-09 01:42:00,
2013-04-08 18:47:00,52.2,32.0,29.61,West,274,35.7,35.7,46,0.00,CLR,,0.00,WeatherDisplay:10.37,2013-04-09 01:47:00,
2013-04-08 18:53:00,52.2,32.0,29.61,West,267,28.8,31.5,46,0.00,CLR,,0.00,WeatherDisplay:10.37,2013-04-09 01:53:00,
2013-04-08 18:58:00,52.0,32.4,29.61,West,261,37.0,37.0,47,0.00,CLR,,0.00,WeatherDisplay:10.37,2013-04-09 01:58:00,
2013-04-08 19:03:00,51.7,32.6,29.61,West,272,31.0,45.0,48,0.00,,,0.00,WeatherDisplay:10.37,2013-04-09 02:03:00,
2013-04-08 19:08:00,51.5,32.4,29.61,West,279,33.0,48.0,48,0.00,,,0.00,WeatherDisplay:10.37,2013-04-09 02:08:00,
2013-04-08 19:13:00,51.5,32.9,29.61,WNW,287,41.0,52.0,49,0.00,,,0.00,WeatherDisplay:10.37,2013-04-09 02:13:00,
2013-04-08 19:18:00,51.7,32.6,29.62,West,275,42.6,42.6,48,0.00,CLR,,0.00,WeatherDisplay:10.37,2013-04-09 02:18:00,
2013-04-08 19:23:00,51.8,32.2,29.63,West,280,44.9,44.9,47,0.00,CLR,,0.00,WeatherDisplay:10.37,2013-04-09 02:23:00,
2013-04-08 19:29:00,51.9,32.8,29.62,WNW,295,42.6,42.6,48,0.00,CLR,,0.00,WeatherDisplay:10.37,2013-04-09 02:29:00,
2013-04-08 19:34:00,52.0,32.4,29.64,WNW,294,46.0,46.0,47,0.00,CLR,,0.00,WeatherDisplay:10.37,2013-04-09 02:34:00,
2013-04-08 19:40:00,52.1,32.5,29.65,West,278,42.6,42.6,47,0.00,CLR,,0.00,WeatherDisplay:10.37,2013-04-09 02:40:00,
2013-04-08 19:45:00,52.2,33.1,29.65,West,281,50.6,50.6,48,0.00,CLR,,0.00,WeatherDisplay:10.37,2013-04-09 02:45:00,
2013-04-08 19:50:00,52.0,32.9,29.65,West,273,37.0,37.0,48,0.00,CLR,,0.00,WeatherDisplay:10.37,2013-04-09 02:50:00,
2013-04-08 19:55:00,52.0,33.4,29.66,WNW,300,39.1,39.1,49,0.00,CLR,,0.00,WeatherDisplay:10.37,2013-04-09 02:55:00,
2013-04-08 20:00:00,51.9,33.8,29.65,WNW,289,41.4,41.4,50,0.00,CLR,,0.00,WeatherDisplay:10.37,2013-04-09 03:00:00,
2013-04-08 20:05:00,51.9,33.8,29.66,West,281,34.5,34.5,50,0.00,CLR,,0.00,WeatherDisplay:10.37,2013-04-09 03:05:00,
2013-04-08 20:10:00,52.2,33.6,29.66,West,275,36.0,36.0,49,0.00,CLR,,0.00,WeatherDisplay:10.37,2013-04-09 03:10:00,
2013-04-08 20:15:00,52.4,33.8,29.66,WNW,291,34.5,34.5,49,0.00,CLR,,0.00,WeatherDisplay:10.37,2013-04-09 03:15:00,
2013-04-08 20:21:00,52.2,34.1,29.66,West,265,33.4,33.4,50,0.00,CLR,,0.00,WeatherDisplay:10.37,2013-04-09 03:21:00,
2013-04-08 20:26:00,52.1,34.5,29.65,West,272,36.8,36.8,51,0.00,CLR,,0.00,WeatherDisplay:10.37,2013-04-09 03:26:00,
2013-04-08 20:31:00,52.0,34.4,29.66,West,274,44.9,44.9,51,0.00,CLR,,0.00,WeatherDisplay:10.37,2013-04-09 03:31:00,
2013-04-08 20:36:00,51.9,34.3,29.65,West,262,35.7,35.7,51,0.00,CLR,,0.00,WeatherDisplay:10.37,2013-04-09 03:36:00,
2013-04-08 20:42:00,51.9,34.3,29.66,West,276,36.8,36.8,51,0.00,CLR,,0.00,WeatherDisplay:10.37,2013-04-09 03:42:00,
2013-04-08 20:47:00,51.9,34.3,29.66,West,279,40.3,40.3,51,0.00,CLR,,0.00,WeatherDisplay:10.37,2013-04-09 03:47:00,
2013-04-08 20:52:00,51.9,34.3,29.65,West,276,45.0,45.0,51,0.00,CLR,,0.00,WeatherDisplay:10.37,2013-04-09 03:52:00,
2013-04-08 20:57:00,52.2,34.6,29.66,WNW,282,44.9,44.9,51,0.00,CLR,,0.00,WeatherDisplay:10.37,2013-04-09 03:57:00,
2013-04-08 21:00:00,52.1,34.5,29.67,WNW,285,38.0,38.0,51,0.00,CLR,,0.00,WeatherDisplay:10.37,2013-04-09 04:00:00,
2013-04-08 21:01:00,52.0,34.4,29.67,WNW,285,46.0,46.0,51,0.00,CLR,,0.00,WeatherDisplay:10.37,2013-04-09 04:01:00,
2013-04-08 21:02:00,52.0,34.4,29.67,WNW,288,46.0,46.0,51,0.00,CLR,,0.00,WeatherDisplay:10.37,2013-04-09 04:02:00,
2013-04-08 21:07:00,51.9,34.8,29.67,WNW,286,37.0,37.0,52,0.00,CLR,,0.00,WeatherDisplay:10.37,2013-04-09 04:07:00,
2013-04-08 21:12:00,51.7,34.6,29.68,WNW,297,35.0,35.0,52,0.00,CLR,,0.00,WeatherDisplay:10.37,2013-04-09 04:12:00,
2013-04-08 21:18:00,51.7,35.1,29.69,WNW,290,39.0,39.0,53,0.00,CLR,,0.00,WeatherDisplay:10.37,2013-04-09 04:18:00,
2013-04-08 21:23:00,51.8,34.7,29.69,WNW,290,35.0,35.0,52,0.00,CLR,,0.00,WeatherDisplay:10.37,2013-04-09 04:23:00,
2013-04-08 21:28:00,51.8,34.7,29.70,WNW,297,34.5,34.5,52,0.00,CLR,,0.00,WeatherDisplay:10.37,2013-04-09 04:28:00,
2013-04-08 21:33:00,51.7,35.1,29.70,WNW,284,32.0,43.0,53,0.00,,,0.00,WeatherDisplay:10.37,2013-04-09 04:33:00,
2013-04-08 21:38:00,51.8,34.7,29.70,WNW,282,26.0,43.0,52,0.00,CLR,,0.00,WeatherDisplay:10.37,2013-04-09 04:38:00,
2013-04-08 21:43:00,51.5,35.0,29.70,West,280,35.0,40.0,53,0.00,,,0.00,WeatherDisplay:10.37,2013-04-09 04:43:00,
2013-04-08 21:48:00,51.7,34.7,29.71,WNW,282,32.0,43.0,52,0.00,,,0.00,WeatherDisplay:10.37,2013-04-09 04:48:00,
2013-04-08 21:53:00,51.9,34.8,29.70,West,276,30.0,36.0,52,0.00,,,0.00,WeatherDisplay:10.37,2013-04-09 04:53:00,
2013-04-08 21:58:00,51.9,34.3,29.71,WNW,282,41.0,41.0,51,0.00,CLR,,0.00,WeatherDisplay:10.37,2013-04-09 04:58:00,
2013-04-08 22:03:00,51.8,34.2,29.71,West,271,31.1,31.1,51,0.00,CLR,,0.00,WeatherDisplay:10.37,2013-04-09 05:03:00,
2013-04-08 22:09:00,51.8,34.2,29.71,West,262,34.5,34.5,51,0.00,CLR,,0.00,WeatherDisplay:10.37,2013-04-09 05:09:00,
2013-04-08 22:14:00,51.7,34.1,29.72,West,279,28.8,28.8,51,0.00,CLR,,0.00,WeatherDisplay:10.37,2013-04-09 05:14:00,
2013-04-08 22:19:00,51.7,34.1,29.71,WNW,285,34.5,34.5,51,0.00,CLR,,0.00,WeatherDisplay:10.37,2013-04-09 05:19:00,
2013-04-08 22:24:00,51.8,34.2,29.72,West,277,35.7,35.7,51,0.00,CLR,,0.00,WeatherDisplay:10.37,2013-04-09 05:24:00,
2013-04-08 22:29:00,51.7,34.1,29.73,WNW,284,34.5,34.5,51,0.00,CLR,,0.00,WeatherDisplay:10.37,2013-04-09 05:29:00,
2013-04-08 22:34:00,51.8,33.7,29.73,WNW,284,32.2,32.2,50,0.00,CLR,,0.00,WeatherDisplay:10.37,2013-04-09 05:34:00,
2013-04-08 22:40:00,51.8,33.7,29.73,West,276,34.5,34.5,50,0.00,CLR,,0.00,WeatherDisplay:10.37,2013-04-09 05:40:00,
2013-04-08 22:45:00,51.6,33.6,29.73,West,275,32.2,32.2,50,0.00,CLR,,0.00,WeatherDisplay:10.37,2013-04-09 05:45:00,
2013-04-08 22:50:00,51.6,33.6,29.73,West,276,28.0,28.0,50,0.00,CLR,,0.00,WeatherDisplay:10.37,2013-04-09 05:50:00,
2013-04-08 22:55:00,51.6,33.0,29.73,WNW,283,35.7,35.7,49,0.00,CLR,,0.00,WeatherDisplay:10.37,2013-04-09 05:55:00,
2013-04-08 23:00:00,51.8,33.2,29.73,West,263,35.0,35.0,49,0.00,CLR,,0.00,WeatherDisplay:10.37,2013-04-09 06:00:00,
2013-04-08 23:05:00,51.6,33.0,29.73,WNW,284,21.0,21.0,49,0.00,CLR,,0.00,WeatherDisplay:10.37,2013-04-09 06:05:00,
2013-04-08 23:11:00,51.2,33.7,29.73,West,265,32.0,32.0,51,0.00,CLR,,0.00,WeatherDisplay:10.37,2013-04-09 06:11:00,
2013-04-08 23:16:00,51.2,33.7,29.74,West,277,32.2,32.2,51,0.00,CLR,,0.00,WeatherDisplay:10.37,2013-04-09 06:16:00,
2013-04-08 23:21:00,51.3,33.3,29.73,West,273,34.5,34.5,50,0.00,CLR,,0.00,WeatherDisplay:10.37,2013-04-09 06:21:00,
2013-04-08 23:26:00,51.4,33.4,29.74,West,273,30.0,30.0,50,0.00,CLR,,0.00,WeatherDisplay:10.37,2013-04-09 06:26:00,
2013-04-08 23:31:00,51.3,33.3,29.73,WNW,285,39.1,39.1,50,0.00,CLR,,0.00,WeatherDisplay:10.37,2013-04-09 06:31:00,
2013-04-08 23:37:00,51.2,33.2,29.74,West,280,28.8,28.8,50,0.00,CLR,,0.00,WeatherDisplay:10.37,2013-04-09 06:37:00,
2013-04-08 23:42:00,50.8,32.8,29.74,West,265,23.0,23.0,50,0.00,CLR,,0.00,WeatherDisplay:10.37,2013-04-09 06:42:00,
2013-04-08 23:47:00,50.8,32.8,29.75,West,278,26.5,26.5,50,0.00,CLR,,0.00,WeatherDisplay:10.37,2013-04-09 06:47:00,
2013-04-08 23:52:00,50.1,34.1,29.75,West,261,23.0,23.0,54,0.00,CLR,,0.00,WeatherDisplay:10.37,2013-04-09 06:52:00,
2013-04-08 23:58:00,49.5,34.4,29.75,West,276,23.0,23.0,56,0.00,CLR,,0.00,WeatherDisplay:10.37,2013-04-09 06:58:00,